sat.trackr.live / text

‹ back to catalog

STARLINK-35384

NORAD 65884 · 2025-224C

PAYLOAD ACTIVE UNKNOWN

§ Identity

Operator
Country
US
Launch date
2025-10-07
Launch site
AFETR
Launch vehicle
Mass (kg)
RCS (m²)

Purposes: comms

External: N2YO · Heavens-Above · Gunter

§ Orbital elements

Epoch: 2026-05-25T01:06:27.016128Z

Period
94.10 min
Inclination
53.1601°
Eccentricity
0.0001151
Mean motion
15.30213186 rev/d
Perigee alt
474.4 km
Apogee alt
476.0 km
Semi-major
6,853.3 km
B*
6.1474e-4
RAAN
16.7667°
Arg perigee
85.6482°
Mean anomaly
274.4650°
Rev number
3,651

§ Raw data

STARLINK-353841 65884U 25224C   26145.04614602  .00017899  00000+0  61474-3 0  99952 65884  53.1601  16.7667 0001151  85.6482 274.4650 15.30213186 36516

JSON: /api/v1/satellites/65884 · /tle

For live sub-satellite position, see the globe view (requires WebGL).

§ Visibility from observer

Set your observer location to see the next 7 days of passes ≥ 10°. The values pass through the URL so the page stays shareable.

No JS? Fill the form by hand. The geolocation button needs JavaScript.